AirNav   Bose Proflight Series 2 Wireless Aviation Headset
 
 1003 users online  

ND38 Rices Airpark
Maddock, North Dakota, USA

GOING TO MADDOCK?


FAA INFORMATION EFFECTIVE 07 NOVEMBER 2019

Location

FAA Identifier: ND38
Lat/Long: 47-57-30.0300N 099-32-11.4770W
47-57.500500N 099-32.191283W
47.9583417,-99.5365214
(estimated)
Elevation: 1575 ft. / 480 m (estimated)
Variation: 09E (1985)
From city: 1 mile SW of MADDOCK, ND
Time zone: UTC -6 (UTC -5 during Daylight Saving Time)
Zip code: 58348

Airport Operations

Airport use: Private use. Permission required prior to landing
Activation date: 08/1964
Control tower: no
ARTCC: MINNEAPOLIS CENTER
FSS: GRAND FORKS FLIGHT SERVICE STATION
Attendance: UNATNDD
Wind indicator: no
Segmented circle: no

Airport Communications

WX AWOS-3 at 5H4 (19 nm SW): 118.825 (701-324-2058)
  • MULTICOM 122.9.

Nearby radio navigation aids

VOR radial/distance  VOR name  Freq  Var
DVLr242/26.7DEVILS LAKE VOR/DME111.0007E

Airport Services

Airframe service: NONE
Powerplant service: NONE

Runway Information

Runway NW/SE

Dimensions: 2200 x 100 ft. / 671 x 30 m
Surface: turf
RUNWAY NW  RUNWAY SE
Traffic pattern: leftleft

Airport Ownership and Management from official FAA records

Ownership: Privately-owned
Owner: JOHN D. RICE, JR.
BOX 93
MADDOCK, ND 58348
Phone 701-438-2350
Manager: JOHN D. RICE, JR.
BOX 93
MADDOCK, ND 58348
Phone 701-438-2350

Airport Operational Statistics

Aircraft based on the field: 2
Single engine airplanes: 2
    

Additional Remarks

FOR CD CTC MINNEAPOLIS ARTCC AT 651-463-5588.

Instrument Procedures

There are no published instrument procedures at ND38.

Some nearby airports with instrument procedures:

5H4 - Harvey Municipal Airport (19 nm SW)
KDVL - Devils Lake Regional Airport (27 nm E)
KRUG - Rugby Municipal Airport (32 nm NW)
9D7 - Cando Municipal Airport (34 nm N)
46D - Carrington Municipal Airport (34 nm SE)
 
Loc | Ops | Rwys | IFR | FBO | Links
Com | Nav | Svcs | Stats | Notes

Bismarck Aero Center
AirBoss

 
Area around ND38 (Rices Airpark)
 
Road maps at: MapQuest Bing Google
 
Aerial photo
No photo
 
Sectional chart

 
Airport distance calculator
Flying to Rices Airpark? Find the distance to fly.

From to ND38

Sunrise and sunset
Times for 21-Nov-2019
 Local
(UTC-6)
 Zulu
(UTC)
Morning civil twilight07:2013:20
Sunrise07:5413:54
Sunset16:5422:54
Evening civil twilight17:2823:28

Current date and time
Zulu (UTC)  22-Nov-2019 02:22:23
Local (UTC-6)  21-Nov-2019 20:22:23
 
METAR
K5H4 
19nm SW 
220155Z AUTO 24007KT 10SM CLR M12/M13 A3018 RMK AO2
KDVL 
27nm E 
220156Z AUTO 24005KT 10SM CLR M13/M14 A3017 RMK AO2 SLP803 T11331144 FZRANO
KRUG 
32nm NW 
220155Z AUTO 18006KT 10SM CLR M12/M13 A3015 RMK AO2
K9D7 
34nm N 
220155Z AUTO 24006KT 10SM CLR M16/M16 A3017 RMK AO2
K46D 
34nm SE 
220155Z AUTO 25006KT 10SM CLR M10/M12 A3020 RMK AO2
TAF
KDVL 
27nm E 
211731Z 2118/2218 32011KT P6SM -SN OVC015 FM212000 28008KT P6SM FEW250 FM221100 22013KT P6SM FEW250
NOTAMs
Click for the latest NOTAMs
NOTAMs are issued by the DoD/FAA and will open in a separate window not controlled by AirNav.

 

 
 

Would you like to see your business listed on this page?

 If your business provides an interesting product or service to pilots, flight crews, aircraft, or users of the Rices Airpark, you should consider listing it here.  To start the listing process, click on the button below
 
Add a business
 

Other Pages about Rices Airpark

Update a link
 
Copyright © AirNav, LLC. All rights reserved. Privacy Policy  Contact